{"data":{"norad_id":67455,"intl_designator":"2026-008L","name":"STARLINK-36516","alt_names":[],"object_type":"PAYLOAD","status":"ACTIVE","operator":null,"country":"US","launch_date":"2026-01-14","launch_site_code":"AFETR","launch_vehicle":null,"mission":null,"orbit_class":"UNKNOWN","rcs_meters":null,"size_class":null,"mass_kg":null,"dimensions":null,"purposes":["comms"],"wikipedia_slug":null,"has_3d_model":false,"image_url":null,"decayed_at":null,"tle_current":{"epoch":"2026-05-24T23:45:31.621248Z","epoch_age_seconds":66113,"freshness":"FRESH","line1":"1 67455U 26008L   26144.98994932  .00014184  00000+0  52390-3 0  9992","line2":"2 67455  42.9949 134.1266 0001354 313.9853  46.0887 15.27583587 21247","mean_motion":15.27583587,"eccentricity":0.0001354,"inclination_deg":42.9949,"raan_deg":134.1266,"arg_perigee_deg":313.9853,"mean_anomaly_deg":46.0887,"bstar":0.0005239,"rev_number":2124,"period_min":94.266527360902,"perigee_km":482.10935214915,"apogee_km":483.96735843536,"semimajor_km":6861.1753552923,"source":"CELESTRAK","updated_at":"2026-05-25T13:38:21.561433Z"}}}